Погода в Грушевке

Россия / Республика Крым     45°01′15″N   34°58′24″E
темп.,
°C
ветер,
м/с
пор.,
м/с
влажн.,
%
обл.,
%
осадки,
мм/ч
давл.,
гПа
погр.,
м
29 июня, ср
ср2900:00+17ссз2393100 0.0 101454
03:00+16ссз239443 0.1 101448
06:00+17ссз23894 0.2 101467
09:00+23св366196 0.3 1014590
12:00+26всв463883 0.0 10141056
15:00+27всв453881 0.0 10141268
18:00+25ссв34501 0.0 1014657
21:00+19ссз11681 0.0 101418
30 июня, чт
чт3000:00+18ссз22690 0.0 101423
03:00+18ссз22760 0.0 101422
06:00+19ссз12821 0.0 101334
09:00+24св34600 0.0 1013578
12:00+28св45450 0.0 10131569
15:00+27св44470 0.0 10131355
18:00+25ссв34500 0.0 1012819
21:00+19ссз2272100 0.0 101328
1 июля, пт
пт100:00+18ссз227842 0.0 101332
03:00+18сз228166 0.0 101353
06:00+19ссз2387100 0.0 1013135
09:00+22с456514 0.0 1014686
12:00+24с66560 0.0 10141008
15:00+24ссв56521 0.0 10151020
18:00+22ссв36510 0.0 1015771
21:00+18ссз22630 0.0 101524
2 июля, сб
сб200:00+17зсз22640 0.0 101628
03:00+17сз23680 0.0 101730
06:00+17сз22760 0.0 101733
09:00+22ссв47560 0.0 10181323
12:00+23ссв57450 0.0 10191713
15:00+23ссв57510 0.0 10191480
18:00+21ссв48450 0.0 10191046
21:00+16ссз11640 0.0 102016
3 июля, вс
вс300:00+16зсз22520 0.0 102016
03:00+15зсз22520 0.0 102018
06:00+16сз22570 0.0 102021
09:00+21ссз35430 0.0 1019689
12:00+25ссв45390 0.0 10191410
15:00+26ссв45380 0.0 10191471
18:00+25ссв24400 0.0 1018858
21:00+21зюз22534 0.0 101812